Location: Mittersill
(44.1801°N, 71.7142°W)
Time: 04:30:20
(UTC+00:00)

ACS3 Solar Sail - Pass Details

Date: 10 September 2024
Orbit: 963 x 1036 km, 97.4° (Epoch: 04 October)

Event Time Altitude Azimuth Distance (km) Brightness Sun altitude
Rises 22:19:47 0° 78° (ENE) 3,787 4.2 7.4°
Enters shadow 23:35:08 -51° 158° (SSE) 11,138 7.1 -6.1°
Maximum altitude 00:06:30 33° 65° (ENE) 1,653 2.6 -11.5°
